Location: Kawakawa
(35.3830°S, 174.0670°E)
Time: 19:04:23
(UTC+13:00)

Explorer 7 - Pass Details

Date: 16 December 2019
Orbit: 485 x 679 km, 50.3° (Epoch: 21 January)

Event Time Altitude Azimuth Distance (km) Brightness Sun altitude
Rises 08:25:47 0° 221° (SW) 2,579 10.0 26.4°
Reaches altitude 10° 08:28:22 10° 204° (SSW) 1,699 9.3 26.9°
Maximum altitude 08:31:19 21° 153° (SSE) 1,179 9.2 27.5°
Drops below altitude 10° 08:34:19 10° 103° (ESE) 1,726 11.1 28.1°
Sets 08:36:58 0° 86° (E) 2,634 11.4 28.6°
